Tracking 18785 objects as of 22-July-2017
HD Live streaming from Space Station
objects crossing your sky now
MAYAK may become the brightest orbital object in the night sky!
Where is MAYAK now?
How to spot MAYAK

NSS 10 (AMC-12)

Track NSS 10 (AMC-12) now!
NSS 10 (AMC-12) is classified as:


NORAD ID: 28526
Int'l Code: 2005-003A
Perigee: 35,782.6 km
Apogee: 35,805.5 km
Inclination: 0.0 °
Period: 1,436.1 minutes
Semi major axis: 42164 km
RCS: 8.2875 m2 (large)
Launch date: February 3, 2005
Source: SOCIETE EUROPEENNE DES SATELLITES (SES)
Launch site: TYURATAM MISSILE AND SPACE COMPLEX (TTMTR)

72 C-band transponders.
Your satellite tracking list
Your tracking list is empty





NASA's NSSDC Master Catalog

Two Line Element Set (TLE):
1 28526U 05003A   17202.70462565 -.00000268 +00000-0 +00000-0 0  9995
2 28526 000.0329 313.3159 0002717 184.6070 017.9360 01.00270846020575
Source of the keplerian elements: AFSPC